Location: ??????
(38.0131°N, 23.7723°E)
Time: 06:35:31
(UTC+00:00)

Genesis I - Pass Details

Date: 17 October 2021
Orbit: 469 x 547 km, 64.5° (Epoch: 28 November)

Event Time Altitude Azimuth Distance (km) Brightness Sun altitude
Rises 17:15:49 0° 323° (NW) 2,720 7.4 -18.7°
Reaches altitude 10° 17:18:04 10° 318° (NW) 1,824 6.6 -19.2°
Maximum altitude 17:22:02 50° 243° (WSW) 702 4.1 -20.0°
Enters shadow 17:25:14 15° 171° (S) 1,519 5.4 -20.6°
